TimeAKDT,TemperatureF,Dew PointF,Humidity,Sea Level PressureIn,VisibilityMPH,Wind Direction,Wind SpeedMPH,Gust SpeedMPH,PrecipitationIn,Events,Conditions,WindDirDegrees,DateUTC
12:53 AM,16.0,14.0,92,30.17,10.0,Calm,Calm,-,N/A,,Clear,0,2013-10-22 08:53:00
1:53 AM,14.0,12.0,92,30.18,10.0,Calm,Calm,-,N/A,,Clear,0,2013-10-22 09:53:00
2:53 AM,14.0,10.9,88,30.19,10.0,South,3.5,-,N/A,,Clear,170,2013-10-22 10:53:00
3:53 AM,12.9,10.0,88,30.20,10.0,Calm,Calm,-,N/A,,Clear,0,2013-10-22 11:53:00
4:53 AM,10.9,9.0,92,30.21,10.0,Calm,Calm,-,N/A,,Clear,0,2013-10-22 12:53:00
5:53 AM,12.0,8.1,84,30.22,10.0,Calm,Calm,-,N/A,,Clear,0,2013-10-22 13:53:00
6:53 AM,10.9,8.1,88,30.23,10.0,Calm,Calm,-,N/A,,Clear,0,2013-10-22 14:53:00
7:53 AM,10.9,8.1,88,30.23,10.0,Calm,Calm,-,N/A,,Clear,0,2013-10-22 15:53:00
8:53 AM,12.0,8.1,84,30.23,10.0,Calm,Calm,-,N/A,,Clear,0,2013-10-22 16:53:00
9:53 AM,18.0,15.1,88,30.24,10.0,Calm,Calm,-,N/A,,Clear,0,2013-10-22 17:53:00
10:53 AM,28.0,21.9,78,30.23,10.0,ESE,8.1,-,N/A,,Clear,110,2013-10-22 18:53:00
11:53 AM,30.0,21.9,72,30.23,10.0,East,5.8,-,N/A,,Overcast,90,2013-10-22 19:53:00
12:53 PM,33.1,23.0,66,30.23,10.0,Calm,Calm,-,N/A,,Overcast,0,2013-10-22 20:53:00
1:53 PM,34.0,21.9,61,30.23,10.0,ESE,8.1,-,N/A,,Overcast,120,2013-10-22 21:53:00
2:53 PM,37.0,21.0,52,30.22,10.0,ESE,8.1,19.6,N/A,,Overcast,110,2013-10-22 22:53:00
3:53 PM,37.9,21.0,51,30.21,10.0,Variable,6.9,-,N/A,,Clear,0,2013-10-22 23:53:00
4:53 PM,36.0,21.0,55,30.22,10.0,East,10.4,-,N/A,,Clear,100,2013-10-23 00:53:00
5:53 PM,34.0,21.0,59,30.22,10.0,East,6.9,-,N/A,,Mostly Cloudy,100,2013-10-23 01:53:00
6:53 PM,34.0,21.0,59,30.21,10.0,SE,6.9,-,N/A,,Overcast,130,2013-10-23 02:53:00
7:53 PM,34.0,21.0,59,30.20,10.0,Variable,3.5,-,N/A,,Scattered Clouds,0,2013-10-23 03:53:00
8:53 PM,33.1,21.9,64,30.21,10.0,ESE,5.8,-,N/A,,Scattered Clouds,110,2013-10-23 04:53:00
9:53 PM,28.0,19.9,72,30.20,10.0,Calm,Calm,-,N/A,,Clear,0,2013-10-23 05:53:00
10:53 PM,21.9,16.0,78,30.20,10.0,Calm,Calm,-,N/A,,Clear,0,2013-10-23 06:53:00
11:53 PM,19.0,15.1,85,30.20,10.0,Calm,Calm,-,N/A,,Clear,0,2013-10-23 07:53:00